Welcome to Northern Hawkes Bay. New Zealand.
PWS Header
      nz Flag



Hit Counter


W3C Valid W3C Valid logo


    Wairoa

Select any of the Stations below to visit their websites.










Historic Data from Weather Underground
Select the location of interest below. Wairoa is the default. Please have patience, this Data is slow to load in.
Northern Hawkes Bay Historical Data
Daily Summary for May 20, 2017 Units:  Metric    English   Both
« Previous Day
Next Day »
Daily Weekly Monthly Yearly Custom
  High: Low: Average:
Temperature: 16.2 °C 4.4 °C 10 °C
Dew Point: 9.0 °C -1.4 °C 4.3 °C
Humidity: 94% 52% 68%
Wind Speed: 35.6km/h 1.1km/h 11.2km/h
Wind Gust: 47.9km/h - -
Wind- - West
Pressure: 1014.4 hPa 1002.6 hPa -
Precipitation: 6.1 mm    
Historical Graphs
 
 
Tabular Data for May 20, 2017
Time Temperature Dew Point Pressure Wind Wind Speed Wind Gust Humidity Rainfall Rate (Hourly) solar
00:00 11.9 °C 3.9 °C 1006.0 hPa NNE 3.5 km/h 12.2 km/h 58% 0.0 mm 0 W/m2
00:05 11.7 °C 3.9 °C 1006.0 hPa NE 7.2 km/h 14.8 km/h 59% 0.0 mm 0 W/m2
00:10 11.9 °C 4.2 °C 1006.0 hPa NNE 2.6 km/h 14.8 km/h 59% 0.0 mm 0 W/m2
00:15 12.1 °C 3.8 °C 1006.3 hPa North 11.1 km/h 14.8 km/h 57% 0.0 mm 0 W/m2
00:20 12.6 °C 3.8 °C 1006.0 hPa North 6.1 km/h 28.0 km/h 55% 0.0 mm 0 W/m2
00:25 12.6 °C 3.8 °C 1006.0 hPa NNW 11.1 km/h 28.0 km/h 55% 0.0 mm 0 W/m2
00:30 12.7 °C 3.9 °C 1006.0 hPa NNW 9.7 km/h 18.3 km/h 55% 0.0 mm 0 W/m2
00:35 12.6 °C 3.8 °C 1006.3 hPa NNW 7.2 km/h 18.3 km/h 55% 0.0 mm 0 W/m2
00:40 12.6 °C 4.1 °C 1006.0 hPa North 12.2 km/h 17.2 km/h 56% 0.0 mm 0 W/m2
00:45 12.6 °C 4.1 °C 1006.3 hPa NNW 12.2 km/h 19.5 km/h 56% 0.0 mm 0 W/m2
00:50 12.6 °C 4.3 °C 1006.3 hPa NNW 12.2 km/h 19.5 km/h 57% 0.0 mm 0 W/m2
00:55 12.6 °C 4.3 °C 1006.0 hPa North 12.2 km/h 18.3 km/h 57% 0.0 mm 0 W/m2
01:00 12.6 °C 4.3 °C 1006.0 hPa NNW 5.0 km/h 20.9 km/h 57% 0.0 mm 0 W/m2
01:05 12.7 °C 4.7 °C 1006.0 hPa NNW 9.7 km/h 20.9 km/h 58% 0.0 mm 0 W/m2
01:10 12.6 °C 4.6 °C 1006.0 hPa North 8.7 km/h 19.5 km/h 58% 0.0 mm 0 W/m2
01:15 12.6 °C 4.8 °C 1006.0 hPa North 6.1 km/h 14.8 km/h 59% 0.0 mm 0 W/m2
01:20 12.7 °C 4.7 °C 1006.0 hPa North 5.0 km/h 14.8 km/h 58% 0.0 mm 0 W/m2
01:25 12.7 °C 4.9 °C 1006.0 hPa NNE 5.0 km/h 12.2 km/h 59% 0.0 mm 0 W/m2
01:30 12.3 °C 4.8 °C 1006.0 hPa NNE 2.6 km/h 9.7 km/h 60% 0.0 mm 0 W/m2
01:35 12.2 °C 4.9 °C 1005.6 hPa NNE 3.5 km/h 9.7 km/h 61% 0.0 mm 0 W/m2
01:40 11.9 °C 4.8 °C 1005.6 hPa NNE 5.0 km/h 8.7 km/h 62% 0.0 mm 0 W/m2
01:45 12.0 °C 4.7 °C 1005.6 hPa NE 5.0 km/h 9.7 km/h 61% 0.0 mm 0 W/m2
01:50 12.0 °C 4.7 °C 1005.6 hPa NE 6.1 km/h 13.4 km/h 61% 0.0 mm 0 W/m2
01:55 11.9 °C 5.1 °C 1005.6 hPa NE 2.6 km/h 13.4 km/h 63% 0.0 mm 0 W/m2
02:00 11.9 °C 5.1 °C 1005.6 hPa NNE 5.0 km/h 8.7 km/h 63% 0.0 mm 0 W/m2
02:05 11.9 °C 5.1 °C 1005.3 hPa NNE 5.0 km/h 12.2 km/h 63% 0.0 mm 0 W/m2
02:10 11.9 °C 5.1 °C 1005.6 hPa North 7.2 km/h 12.2 km/h 63% 0.0 mm 0 W/m2
02:15 12.0 °C 4.9 °C 1005.3 hPa NNW 3.5 km/h 11.1 km/h 62% 0.0 mm 0 W/m2
02:20 12.0 °C 4.9 °C 1005.3 hPa North 6.1 km/h 14.8 km/h 62% 0.0 mm 0 W/m2
02:25 12.1 °C 4.8 °C 1005.3 hPa North 3.5 km/h 14.8 km/h 61% 0.0 mm 0 W/m2
02:30 12.0 °C 4.7 °C 1005.0 hPa NNW 3.5 km/h 13.4 km/h 61% 0.0 mm 0 W/m2
02:35 12.0 °C 4.9 °C 1005.0 hPa NNW 5.0 km/h 14.8 km/h 62% 0.0 mm 0 W/m2
02:40 12.1 °C 5.1 °C 1005.0 hPa NW 12.2 km/h 24.5 km/h 62% 0.0 mm 0 W/m2
02:45 12.4 °C 5.1 °C 1005.0 hPa NW 7.2 km/h 24.5 km/h 61% 0.0 mm 0 W/m2
02:50 12.4 °C 5.1 °C 1005.0 hPa NNW 7.2 km/h 24.5 km/h 61% 0.0 mm 0 W/m2
02:55 12.4 °C 5.1 °C 1005.0 hPa NNW 8.7 km/h 15.8 km/h 61% 0.0 mm 0 W/m2
03:00 12.5 °C 5.2 °C 1005.0 hPa NNW 12.2 km/h 21.9 km/h 61% 0.0 mm 0 W/m2
03:05 12.6 °C 5.1 °C 1005.0 hPa NW 8.7 km/h 21.9 km/h 60% 0.0 mm 0 W/m2
03:10 12.6 °C 5.1 °C 1005.3 hPa NW 9.7 km/h 18.3 km/h 60% 0.0 mm 0 W/m2
03:15 12.4 °C 5.1 °C 1005.0 hPa NW 9.7 km/h 17.2 km/h 61% 0.0 mm 0 W/m2
03:20 12.3 °C 5.0 °C 1005.0 hPa NNW 8.7 km/h 15.8 km/h 61% 0.0 mm 0 W/m2
03:25 12.3 °C 5.0 °C 1005.3 hPa NNW 8.7 km/h 14.8 km/h 61% 0.0 mm 0 W/m2
03:30 12.3 °C 5.0 °C 1005.0 hPa NW 6.1 km/h 13.4 km/h 61% 0.0 mm 0 W/m2
03:35 12.2 °C 4.9 °C 1005.0 hPa NW 13.4 km/h 15.8 km/h 61% 0.0 mm 0 W/m2
03:40 12.3 °C 5.0 °C 1005.0 hPa NNW 6.1 km/h 15.8 km/h 61% 0.0 mm 0 W/m2
03:45 12.2 °C 4.9 °C 1005.0 hPa NNW 6.1 km/h 15.8 km/h 61% 0.0 mm 0 W/m2
03:48 12.2 °C 4.9 °C 1004.6 hPa NW 8.7 km/h 13.4 km/h 61% 0.0 mm 0 W/m2
03:53 12.3 °C 4.8 °C 1004.6 hPa NW 7.2 km/h 17.2 km/h 60% 0.0 mm 0 W/m2
03:58 12.4 °C 4.8 °C 1005.0 hPa NW 5.0 km/h 17.2 km/h 60% 0.0 mm 0 W/m2
04:03 12.4 °C 4.8 °C 1005.0 hPa NNW 6.1 km/h 14.8 km/h 60% 0.0 mm 0 W/m2
04:08 12.3 °C 4.8 °C 1004.6 hPa NNW 5.0 km/h 14.8 km/h 60% 0.0 mm 0 W/m2
04:13 12.1 °C 4.8 °C 1004.6 hPa NW 6.1 km/h 12.2 km/h 61% 0.0 mm 0 W/m2
04:18 12.0 °C 4.7 °C 1004.6 hPa NW 5.0 km/h 11.1 km/h 61% 0.0 mm 0 W/m2
04:23 11.9 °C 4.8 °C 1004.6 hPa NW 9.7 km/h 12.2 km/h 62% 0.0 mm 0 W/m2
04:28 12.0 °C 4.7 °C 1005.0 hPa NW 3.5 km/h 12.2 km/h 61% 0.0 mm 0 W/m2
04:33 12.0 °C 4.7 °C 1004.6 hPa NW 5.0 km/h 14.8 km/h 61% 0.0 mm 0 W/m2
04:38 11.9 °C 4.8 °C 1005.0 hPa NW 5.0 km/h 14.8 km/h 62% 0.0 mm 0 W/m2
04:43 12.0 °C 4.7 °C 1005.0 hPa NNW 11.1 km/h 17.2 km/h 61% 0.0 mm 0 W/m2
04:48 12.0 °C 4.7 °C 1005.0 hPa NNW 8.7 km/h 17.2 km/h 61% 0.0 mm 0 W/m2
04:53 12.0 °C 4.7 °C 1004.6 hPa NNW 12.2 km/h 17.2 km/h 61% 0.0 mm 0 W/m2
04:58 12.2 °C 4.7 °C 1004.6 hPa NW 13.4 km/h 21.9 km/h 60% 0.0 mm 0 W/m2
05:03 12.3 °C 4.5 °C 1004.6 hPa NW 9.7 km/h 21.9 km/h 59% 0.0 mm 0 W/m2
05:08 12.2 °C 4.7 °C 1004.6 hPa NW 7.2 km/h 18.3 km/h 60% 0.0 mm 0 W/m2
05:13 12.1 °C 4.6 °C 1005.0 hPa NNW 9.7 km/h 17.2 km/h 60% 0.0 mm 0 W/m2
05:18 12.1 °C 4.6 °C 1004.6 hPa NNW 12.2 km/h 18.3 km/h 60% 0.0 mm 0 W/m2
05:23 12.3 °C 4.5 °C 1004.6 hPa NNW 15.8 km/h 20.9 km/h 59% 0.0 mm 0 W/m2
05:28 12.6 °C 4.6 °C 1004.6 hPa NNW 17.2 km/h 27.0 km/h 58% 0.0 mm 0 W/m2
05:33 12.5 °C 4.4 °C 1004.6 hPa NNW 12.2 km/h 27.0 km/h 58% 0.0 mm 0 W/m2
05:38 12.4 °C 4.4 °C 1004.6 hPa NNW 7.2 km/h 25.6 km/h 58% 0.0 mm 0 W/m2
05:43 12.2 °C 4.4 °C 1004.6 hPa NNW 11.1 km/h 20.9 km/h 59% 0.0 mm 0 W/m2
05:48 12.1 °C 4.6 °C 1004.6 hPa NW 9.7 km/h 18.3 km/h 60% 0.0 mm 0 W/m2
05:53 12.1 °C 4.6 °C 1004.6 hPa NNW 14.8 km/h 19.5 km/h 60% 0.0 mm 0 W/m2
05:58 12.1 °C 4.6 °C 1004.6 hPa NNW 6.1 km/h 19.5 km/h 60% 0.0 mm 0 W/m2
06:00 12.0 °C 4.5 °C 1004.6 hPa North 3.5 km/h 19.5 km/h 60% 0.0 mm 0 W/m2
06:05 11.7 °C 4.7 °C 1004.6 hPa NNW 3.5 km/h 12.2 km/h 62% 0.0 mm 0 W/m2
06:10 11.5 °C 4.5 °C 1004.6 hPa NNW 3.5 km/h 7.2 km/h 62% 0.0 mm 0 W/m2
06:15 11.2 °C 4.4 °C 1004.6 hPa NNW 2.6 km/h 7.2 km/h 63% 0.0 mm 0 W/m2
06:20 10.9 °C 4.3 °C 1004.3 hPa North 1.1 km/h 5.0 km/h 64% 0.0 mm 0 W/m2
06:25 10.8 °C 4.7 °C 1004.6 hPa North 2.6 km/h 9.7 km/h 66% 0.0 mm 0 W/m2
06:30 10.6 °C 4.5 °C 1004.6 hPa NNW 5.0 km/h 9.7 km/h 66% 0.0 mm 0 W/m2
06:35 10.4 °C 4.6 °C 1004.6 hPa NW 5.0 km/h 7.2 km/h 67% 0.0 mm 0 W/m2
06:40 10.3 °C 4.7 °C 1004.6 hPa NNW 2.6 km/h 7.2 km/h 68% 0.0 mm 0 W/m2
06:45 10.3 °C 4.7 °C 1004.3 hPa NNW 2.6 km/h 6.1 km/h 68% 0.0 mm 0 W/m2
06:50 10.2 °C 4.6 °C 1003.9 hPa North 5.0 km/h 7.2 km/h 68% 0.0 mm 0 W/m2
06:55 10.1 °C 4.7 °C 1003.9 hPa NNW 5.0 km/h 11.1 km/h 69% 0.0 mm 0 W/m2
07:00 10.5 °C 5.1 °C 1003.9 hPa NNW 7.2 km/h 13.4 km/h 69% 0.0 mm 0 W/m2
07:05 10.9 °C 5.0 °C 1003.9 hPa North 11.1 km/h 14.8 km/h 67% 0.0 mm 1 W/m2
07:10 11.2 °C 4.9 °C 1003.9 hPa North 8.7 km/h 14.8 km/h 65% 0.0 mm 3 W/m2
07:15 11.2 °C 4.9 °C 1004.3 hPa NNW 5.0 km/h 13.4 km/h 65% 0.0 mm 5 W/m2
07:20 10.9 °C 4.8 °C 1003.9 hPa NW 3.5 km/h 13.4 km/h 66% 0.0 mm 8 W/m2
07:25 10.6 °C 4.7 °C 1003.9 hPa NW 3.5 km/h 13.4 km/h 67% 0.0 mm 12 W/m2
07:30 10.6 °C 4.9 °C 1003.9 hPa NW 3.5 km/h 7.2 km/h 68% 0.0 mm 39 W/m2
07:35 10.7 °C 5.1 °C 1003.9 hPa NW 2.6 km/h 6.1 km/h 68% 0.0 mm 54 W/m2
07:40 10.9 °C 5.2 °C 1003.9 hPa NNW 2.6 km/h 6.1 km/h 68% 0.0 mm 69 W/m2
07:45 11.1 °C 5.2 °C 1003.9 hPa NW 3.5 km/h 6.1 km/h 67% 0.0 mm 83 W/m2
07:50 11.6 °C 5.4 °C 1003.9 hPa NW 7.2 km/h 9.7 km/h 66% 0.0 mm 98 W/m2
07:56 12.5 °C 5.4 °C 1003.6 hPa North 7.2 km/h 13.4 km/h 62% 0.0 mm 110 W/m2
08:01 12.8 °C 5.7 °C 1003.6 hPa North 8.7 km/h 13.4 km/h 62% 0.0 mm 123 W/m2
08:06 12.9 °C 5.8 °C 1003.6 hPa North 11.1 km/h 14.8 km/h 62% 0.0 mm 92 W/m2
08:11 12.8 °C 5.4 °C 1003.6 hPa North 9.7 km/h 17.2 km/h 61% 0.0 mm 47 W/m2
08:16 12.4 °C 5.3 °C 1003.6 hPa North 6.1 km/h 17.2 km/h 62% 0.0 mm 50 W/m2
08:21 12.4 °C 5.6 °C 1003.6 hPa North 8.7 km/h 14.8 km/h 63% 0.0 mm 182 W/m2
08:26 13.0 °C 6.1 °C 1003.3 hPa North 8.7 km/h 15.8 km/h 63% 0.0 mm 67 W/m2
08:31 12.9 °C 6.1 °C 1003.6 hPa North 7.2 km/h 15.8 km/h 63% 0.0 mm 61 W/m2
08:36 12.9 °C 6.3 °C 1003.3 hPa NNW 5.0 km/h 18.3 km/h 64% 0.0 mm 53 W/m2
08:41 12.9 °C 6.3 °C 1003.3 hPa NNW 9.7 km/h 18.3 km/h 64% 0.0 mm 58 W/m2
08:46 13.1 °C 6.2 °C 1003.3 hPa NNW 6.1 km/h 19.5 km/h 63% 0.0 mm 64 W/m2
08:51 13.3 °C 6.2 °C 1002.9 hPa NNW 11.1 km/h 19.5 km/h 62% 0.0 mm 82 W/m2
08:56 13.7 °C 6.3 °C 1002.9 hPa NW 11.1 km/h 17.2 km/h 61% 0.0 mm 93 W/m2
09:01 13.8 °C 6.4 °C 1002.9 hPa NNW 9.7 km/h 19.5 km/h 61% 0.0 mm 96 W/m2
09:06 14.1 °C 6.2 °C 1002.9 hPa NNW 11.1 km/h 19.5 km/h 59% 0.0 mm 123 W/m2
09:11 14.5 °C 6.6 °C 1002.9 hPa NW 9.7 km/h 15.8 km/h 59% 0.0 mm 260 W/m2
09:16 15.3 °C 6.6 °C 1002.9 hPa NNW 9.7 km/h 19.5 km/h 56% 0.0 mm 301 W/m2
09:21 15.6 °C 6.3 °C 1002.6 hPa NW 11.1 km/h 27.0 km/h 54% 0.0 mm 299 W/m2
09:26 16.0 °C 6.4 °C 1002.6 hPa NW 11.1 km/h 27.0 km/h 53% 0.0 mm 227 W/m2
09:31 16.2 °C 6.3 °C 1002.9 hPa NNW 9.7 km/h 19.5 km/h 52% 0.0 mm 158 W/m2
09:36 15.7 °C 6.2 °C 1002.6 hPa NNW 7.2 km/h 28.0 km/h 53% 0.0 mm 99 W/m2
09:41 15.2 °C 6.2 °C 1002.6 hPa NNW 9.7 km/h 28.0 km/h 55% 0.0 mm 130 W/m2
09:46 15.0 °C 6.3 °C 1002.9 hPa NW 9.7 km/h 20.9 km/h 56% 0.0 mm 118 W/m2
09:51 15.0 °C 6.3 °C 1002.9 hPa NNW 9.7 km/h 20.9 km/h 56% 0.0 mm 105 W/m2
09:56 14.9 °C 6.4 °C 1002.6 hPa NNW 8.7 km/h 20.9 km/h 57% 0.0 mm 122 W/m2
10:01 14.9 °C 6.4 °C 1002.9 hPa NNW 8.7 km/h 19.5 km/h 57% 0.0 mm 94 W/m2
10:06 14.8 °C 6.4 °C 1002.9 hPa NW 9.7 km/h 18.3 km/h 57% 0.0 mm 72 W/m2
10:11 14.8 °C 6.4 °C 1002.9 hPa NW 5.0 km/h 18.3 km/h 57% 0.0 mm 65 W/m2
10:16 14.7 °C 6.5 °C 1002.9 hPa NW 9.7 km/h 18.3 km/h 58% 0.0 mm 67 W/m2
10:21 14.6 °C 6.4 °C 1002.9 hPa NW 9.7 km/h 23.3 km/h 58% 0.0 mm 53 W/m2
10:26 14.3 °C 6.7 °C 1002.9 hPa WNW 11.1 km/h 23.3 km/h 60% 0.0 mm 43 W/m2
10:31 14.0 °C 7.3 °C 1003.3 hPa West 3.5 km/h 19.5 km/h 64% 0.0 mm 36 W/m2
10:36 13.6 °C 7.4 °C 1003.3 hPa West 8.7 km/h 14.8 km/h 66% 0.0 mm 28 W/m2
10:41 13.3 °C 7.7 °C 1003.9 hPa SSW 23.3 km/h 35.6 km/h 69% 0.3 mm 19 W/m2
10:46 12.2 °C 7.9 °C 1003.9 hPa SW 20.9 km/h 37.8 km/h 75% 0.5 mm 35 W/m2
10:51 11.2 °C 8.2 °C 1003.9 hPa SW 29.4 km/h 41.7 km/h 82% 1.0 mm 87 W/m2
10:56 11.1 °C 8.3 °C 1003.9 hPa SW 20.9 km/h 41.7 km/h 83% 1.3 mm 40 W/m2
11:01 11.0 °C 8.9 °C 1003.9 hPa SW 23.3 km/h 41.7 km/h 87% 1.5 mm 31 W/m2
11:06 10.7 °C 8.9 °C 1003.9 hPa WSW 20.9 km/h 34.3 km/h 89% 2.0 mm 33 W/m2
11:11 10.3 °C 8.9 °C 1003.9 hPa SW 19.5 km/h 34.3 km/h 91% 3.0 mm 39 W/m2
11:16 10.0 °C 8.9 °C 1003.9 hPa SSW 21.9 km/h 34.3 km/h 93% 3.6 mm 35 W/m2
11:21 10.0 °C 8.9 °C 1003.9 hPa SW 21.9 km/h 30.6 km/h 93% 3.8 mm 31 W/m2
11:26 10.0 °C 8.9 °C 1004.3 hPa SW 18.3 km/h 30.6 km/h 93% 4.3 mm 32 W/m2
11:31 9.9 °C 9.0 °C 1003.9 hPa SSW 17.2 km/h 28.0 km/h 94% 4.6 mm 72 W/m2
11:36 10.0 °C 8.9 °C 1004.3 hPa SSW 18.3 km/h 27.0 km/h 93% 4.6 mm 98 W/m2
11:41 10.2 °C 8.9 °C 1004.3 hPa SW 18.3 km/h 30.6 km/h 92% 4.6 mm 85 W/m2
11:46 10.0 °C 8.6 °C 1004.6 hPa SW 13.4 km/h 30.6 km/h 91% 4.8 mm 31 W/m2
11:51 9.8 °C 8.6 °C 1004.3 hPa SW 19.5 km/h 28.0 km/h 92% 4.8 mm 41 W/m2
11:56 9.7 °C 8.3 °C 1004.3 hPa WSW 14.8 km/h 28.0 km/h 91% 4.6 mm 56 W/m2
12:01 9.9 °C 8.5 °C 1004.6 hPa SW 15.8 km/h 28.0 km/h 91% 4.3 mm 44 W/m2
12:17 10.1 °C 8.1 °C 1004.3 hPa SW 13.4 km/h 28.0 km/h 87% 2.3 mm 35 W/m2
12:22 9.9 °C 8.0 °C 1004.3 hPa SW 14.8 km/h 27.0 km/h 88% 2.0 mm 26 W/m2
12:27 10.0 °C 7.9 °C 1004.6 hPa SW 17.2 km/h 27.0 km/h 87% 1.8 mm 21 W/m2
12:32 10.0 °C 7.8 °C 1004.3 hPa SW 15.8 km/h 25.6 km/h 86% 1.5 mm 36 W/m2
12:37 10.1 °C 7.5 °C 1003.9 hPa SW 9.7 km/h 25.6 km/h 84% 1.3 mm 54 W/m2
12:42 10.1 °C 7.7 °C 1004.3 hPa SW 12.2 km/h 25.6 km/h 85% 1.0 mm 44 W/m2
12:47 10.2 °C 7.6 °C 1004.6 hPa SW 20.9 km/h 30.6 km/h 84% 0.5 mm 35 W/m2
12:52 10.2 °C 7.4 °C 1004.6 hPa SW 24.5 km/h 30.6 km/h 83% 0.3 mm 66 W/m2
12:57 10.2 °C 7.4 °C 1004.6 hPa SSW 18.3 km/h 35.6 km/h 83% 0.3 mm 80 W/m2
13:02 10.1 °C 7.2 °C 1004.6 hPa SSW 15.8 km/h 35.6 km/h 82% 0.3 mm 109 W/m2
13:07 10.0 °C 6.9 °C 1004.3 hPa SSW 28.0 km/h 39.3 km/h 81% 0.0 mm 91 W/m2
13:12 9.8 °C 6.9 °C 1004.6 hPa SSW 20.9 km/h 39.3 km/h 82% 0.0 mm 121 W/m2
13:17 9.5 °C 6.4 °C 1004.6 hPa SSW 25.6 km/h 45.4 km/h 81% 0.0 mm 138 W/m2
13:22 9.6 °C 6.5 °C 1005.0 hPa SW 23.3 km/h 45.4 km/h 81% 0.0 mm 161 W/m2
13:27 9.6 °C 6.5 °C 1005.3 hPa SW 20.9 km/h 41.7 km/h 81% 0.0 mm 102 W/m2
13:32 9.4 °C 6.1 °C 1005.0 hPa SW 14.8 km/h 35.6 km/h 80% 0.0 mm 110 W/m2
13:37 9.4 °C 5.9 °C 1005.0 hPa SSW 20.9 km/h 35.6 km/h 79% 0.0 mm 162 W/m2
13:42 9.8 °C 6.3 °C 1005.3 hPa SSW 17.2 km/h 34.3 km/h 79% 0.0 mm 159 W/m2
13:47 9.5 °C 5.8 °C 1005.3 hPa SSW 27.0 km/h 41.7 km/h 78% 0.0 mm 100 W/m2
13:52 9.0 °C 5.6 °C 1005.6 hPa SSW 23.3 km/h 41.7 km/h 79% 0.0 mm 60 W/m2
13:57 8.7 °C 5.4 °C 1005.6 hPa SW 25.6 km/h 41.7 km/h 80% 0.0 mm 100 W/m2
14:02 8.7 °C 5.4 °C 1005.6 hPa SW 35.6 km/h 42.8 km/h 80% 0.0 mm 64 W/m2
14:07 8.7 °C 5.8 °C 1005.6 hPa SW 28.0 km/h 42.8 km/h 82% 0.0 mm 36 W/m2
14:12 8.6 °C 5.7 °C 1006.0 hPa SW 15.8 km/h 46.5 km/h 82% 0.0 mm 40 W/m2
14:17 8.3 °C 5.4 °C 1006.0 hPa SW 18.3 km/h 46.5 km/h 82% 0.0 mm 39 W/m2
14:22 8.3 °C 5.8 °C 1006.0 hPa SW 15.8 km/h 40.4 km/h 84% 0.0 mm 36 W/m2
14:39 8.3 °C 5.9 °C 1006.0 hPa WSW 24.5 km/h 42.8 km/h 85% 0.0 mm 39 W/m2
14:44 8.4 °C 6.0 °C 1006.0 hPa WSW 18.3 km/h 42.8 km/h 85% 0.0 mm 78 W/m2
15:02 8.4 °C 4.8 °C 1006.3 hPa WSW 15.8 km/h 47.9 km/h 78% 0.0 mm 64 W/m2
15:07 8.5 °C 4.1 °C 1006.3 hPa WSW 21.9 km/h 35.6 km/h 74% 0.0 mm 84 W/m2
15:12 8.7 °C 3.7 °C 1006.3 hPa West 23.3 km/h 43.9 km/h 71% 0.0 mm 91 W/m2
15:17 8.8 °C 3.8 °C 1006.3 hPa West 21.9 km/h 43.9 km/h 71% 0.0 mm 93 W/m2
15:22 9.1 °C 4.3 °C 1006.3 hPa West 21.9 km/h 36.7 km/h 72% 0.0 mm 106 W/m2
15:27 8.9 °C 4.5 °C 1006.7 hPa WSW 13.4 km/h 36.7 km/h 74% 0.0 mm 107 W/m2
15:32 9.2 °C 4.4 °C 1006.7 hPa WSW 18.3 km/h 37.8 km/h 72% 0.0 mm 101 W/m2
15:37 9.3 °C 4.3 °C 1007.0 hPa WSW 28.0 km/h 37.8 km/h 71% 0.0 mm 97 W/m2
15:42 9.3 °C 4.5 °C 1007.3 hPa WSW 28.0 km/h 37.8 km/h 72% 0.0 mm 135 W/m2
15:47 9.3 °C 4.5 °C 1007.3 hPa SW 25.6 km/h 40.4 km/h 72% 0.0 mm 18 W/m2
15:52 8.3 °C 4.7 °C 1007.3 hPa SW 15.8 km/h 42.8 km/h 78% 0.0 mm 24 W/m2
15:57 7.7 °C 4.7 °C 1007.7 hPa SW 23.3 km/h 43.9 km/h 81% 0.0 mm 25 W/m2
16:02 7.7 °C 4.7 °C 1007.7 hPa SSW 20.9 km/h 43.9 km/h 81% 0.0 mm 31 W/m2
16:07 7.7 °C 4.8 °C 1007.7 hPa SW 24.5 km/h 39.3 km/h 82% 0.0 mm 34 W/m2
16:12 7.7 °C 4.4 °C 1007.7 hPa SW 19.5 km/h 39.3 km/h 80% 0.0 mm 34 W/m2
16:17 7.9 °C 4.7 °C 1007.7 hPa WSW 21.9 km/h 36.7 km/h 80% 0.0 mm 26 W/m2
16:22 7.8 °C 4.6 °C 1007.7 hPa SW 11.1 km/h 35.6 km/h 80% 0.0 mm 29 W/m2
16:27 7.9 °C 4.7 °C 1007.7 hPa SW 17.2 km/h 31.7 km/h 80% 0.0 mm 28 W/m2
16:32 8.0 °C 4.2 °C 1008.0 hPa SW 12.2 km/h 31.7 km/h 77% 0.0 mm 16 W/m2
16:37 8.1 °C 4.1 °C 1008.0 hPa SW 12.2 km/h 28.0 km/h 76% 0.0 mm 12 W/m2
16:42 8.2 °C 4.2 °C 1008.0 hPa WSW 7.2 km/h 27.0 km/h 76% 0.0 mm 9 W/m2
16:47 8.0 °C 4.1 °C 1008.0 hPa West 6.1 km/h 24.5 km/h 76% 0.0 mm 8 W/m2
16:52 7.9 °C 3.7 °C 1008.4 hPa West 3.5 km/h 17.2 km/h 75% 0.0 mm 6 W/m2
16:57 7.7 °C 3.7 °C 1008.0 hPa West 2.6 km/h 14.8 km/h 76% 0.0 mm 4 W/m2
17:02 7.5 °C 3.6 °C 1008.4 hPa West 2.6 km/h 14.8 km/h 76% 0.0 mm 2 W/m2
17:07 7.4 °C 3.6 °C 1008.4 hPa WNW 6.1 km/h 13.4 km/h 77% 0.0 mm 0 W/m2
17:12 7.3 °C 3.6 °C 1008.4 hPa WNW 6.1 km/h 13.4 km/h 77% 0.0 mm 0 W/m2
17:17 7.2 °C 3.4 °C 1008.7 hPa NW 3.5 km/h 11.1 km/h 77% 0.0 mm 0 W/m2
17:22 7.1 °C 3.5 °C 1008.7 hPa NW 5.0 km/h 11.1 km/h 78% 0.0 mm 0 W/m2
17:27 6.9 °C 3.7 °C 1008.7 hPa NW 5.0 km/h 9.7 km/h 80% 0.0 mm 0 W/m2
17:32 6.7 °C 3.8 °C 1009.0 hPa NW 5.0 km/h 11.1 km/h 82% 0.0 mm 0 W/m2
17:37 6.6 °C 4.1 °C 1009.0 hPa NW 6.1 km/h 11.1 km/h 84% 0.0 mm 0 W/m2
17:42 6.5 °C 4.2 °C 1009.0 hPa NW 6.1 km/h 11.1 km/h 85% 0.0 mm 0 W/m2
17:47 6.5 °C 4.2 °C 1009.4 hPa NW 6.1 km/h 12.2 km/h 85% 0.0 mm 0 W/m2
17:52 6.4 °C 4.1 °C 1009.4 hPa NW 6.1 km/h 12.2 km/h 85% 0.0 mm 0 W/m2
17:57 6.3 °C 3.9 °C 1009.4 hPa NW 6.1 km/h 12.2 km/h 85% 0.0 mm 0 W/m2
18:02 6.3 °C 3.9 °C 1009.7 hPa NW 5.0 km/h 12.2 km/h 85% 0.0 mm 0 W/m2
18:07 6.2 °C 3.7 °C 1009.7 hPa NW 3.5 km/h 11.1 km/h 84% 0.0 mm 0 W/m2
18:12 6.1 °C 3.6 °C 1009.7 hPa NW 6.1 km/h 8.7 km/h 84% 0.0 mm 0 W/m2
18:17 6.1 °C 3.4 °C 1010.0 hPa NW 5.0 km/h 9.7 km/h 83% 0.0 mm 0 W/m2
18:22 6.1 °C 3.4 °C 1010.0 hPa NW 6.1 km/h 9.7 km/h 83% 0.0 mm 0 W/m2
18:27 6.1 °C 3.3 °C 1010.0 hPa WNW 5.0 km/h 9.7 km/h 82% 0.0 mm 0 W/m2
18:37 6.3 °C 2.6 °C 1010.7 hPa West 6.1 km/h 12.2 km/h 77% 0.0 mm 0 W/m2
18:42 6.5 °C 2.2 °C 1010.7 hPa West 6.1 km/h 12.2 km/h 74% 0.0 mm 0 W/m2
18:47 6.5 °C 2.0 °C 1010.7 hPa West 7.2 km/h 12.2 km/h 73% 0.0 mm 0 W/m2
18:52 6.7 °C 2.2 °C 1010.7 hPa West 3.5 km/h 12.2 km/h 73% 0.0 mm 0 W/m2
18:57 6.8 °C 2.1 °C 1010.7 hPa WNW 5.0 km/h 15.8 km/h 72% 0.0 mm 0 W/m2
19:02 6.9 °C 2.0 °C 1010.7 hPa West 7.2 km/h 15.8 km/h 71% 0.0 mm 0 W/m2
19:07 6.9 °C 2.0 °C 1010.7 hPa West 6.1 km/h 13.4 km/h 71% 0.0 mm 0 W/m2
19:12 6.9 °C 1.8 °C 1011.1 hPa West 5.0 km/h 13.4 km/h 70% 0.0 mm 0 W/m2
19:17 7.1 °C 1.6 °C 1011.1 hPa West 13.4 km/h 18.3 km/h 68% 0.0 mm 0 W/m2
19:22 7.3 °C 1.4 °C 1011.1 hPa West 14.8 km/h 23.3 km/h 66% 0.0 mm 0 W/m2
19:27 8.0 °C 1.8 °C 1011.1 hPa SW 11.1 km/h 31.7 km/h 65% 0.0 mm 0 W/m2
19:32 8.4 °C 2.0 °C 1011.1 hPa WSW 9.7 km/h 31.7 km/h 64% 0.0 mm 0 W/m2
19:37 8.5 °C 0.4 °C 1011.4 hPa WSW 19.5 km/h 40.4 km/h 57% 0.0 mm 0 W/m2
19:38 8.5 °C 0.4 °C 1011.1 hPa WSW 25.6 km/h 40.4 km/h 57% 0.0 mm 0 W/m2
19:43 8.6 °C 1.1 °C 1011.4 hPa WSW 29.4 km/h 40.4 km/h 59% 0.0 mm 0 W/m2
19:48 8.7 °C 1.4 °C 1011.4 hPa WSW 12.2 km/h 41.7 km/h 60% 0.0 mm 0 W/m2
19:53 8.5 °C 1.2 °C 1011.4 hPa SW 19.5 km/h 41.7 km/h 60% 0.0 mm 0 W/m2
19:58 8.5 °C 0.9 °C 1011.4 hPa WSW 12.2 km/h 40.4 km/h 59% 0.0 mm 0 W/m2
20:03 8.5 °C 0.9 °C 1011.7 hPa WSW 20.9 km/h 40.4 km/h 59% 0.0 mm 0 W/m2
20:08 8.8 °C 1.9 °C 1011.7 hPa WSW 21.9 km/h 37.8 km/h 62% 0.0 mm 0 W/m2
20:13 8.8 °C 1.7 °C 1012.1 hPa WSW 17.2 km/h 37.8 km/h 61% 0.0 mm 0 W/m2
20:18 8.8 °C 1.4 °C 1012.1 hPa WSW 11.1 km/h 41.7 km/h 60% 0.0 mm 0 W/m2
20:23 8.6 °C 0.8 °C 1012.1 hPa West 13.4 km/h 41.7 km/h 58% 0.0 mm 0 W/m2
20:28 8.4 °C 0.8 °C 1012.1 hPa West 11.1 km/h 21.9 km/h 59% 0.0 mm 0 W/m2
20:33 8.2 °C 0.7 °C 1012.1 hPa West 14.8 km/h 21.9 km/h 59% 0.0 mm 0 W/m2
20:38 8.1 °C 0.6 °C 1012.4 hPa WNW 12.2 km/h 24.5 km/h 59% 0.0 mm 0 W/m2
20:43 8.2 °C 0.4 °C 1012.4 hPa WSW 17.2 km/h 33.1 km/h 58% 0.0 mm 0 W/m2
20:48 8.3 °C 0.5 °C 1012.8 hPa SW 12.2 km/h 33.1 km/h 58% 0.0 mm 0 W/m2
20:53 8.5 °C 0.2 °C 1012.4 hPa SW 31.7 km/h 41.7 km/h 56% 0.0 mm 0 W/m2
20:58 8.7 °C 0.7 °C 1012.4 hPa SW 23.3 km/h 41.7 km/h 57% 0.0 mm 0 W/m2
21:03 8.5 °C 0.2 °C 1012.8 hPa WSW 21.9 km/h 41.7 km/h 56% 0.0 mm 0 W/m2
21:08 8.6 °C 0.3 °C 1012.4 hPa WSW 20.9 km/h 35.6 km/h 56% 0.0 mm 0 W/m2
21:13 8.6 °C 0.3 °C 1012.4 hPa SW 30.6 km/h 46.5 km/h 56% 0.0 mm 0 W/m2
21:18 8.5 °C 0.4 °C 1012.4 hPa SW 25.6 km/h 46.5 km/h 57% 0.0 mm 0 W/m2
21:23 8.4 °C 0.4 °C 1012.4 hPa WSW 18.3 km/h 36.7 km/h 57% 0.0 mm 0 W/m2
21:28 8.4 °C 0.4 °C 1012.4 hPa WSW 14.8 km/h 36.7 km/h 57% 0.0 mm 0 W/m2
21:33 8.4 °C 0.4 °C 1012.8 hPa WSW 21.9 km/h 36.7 km/h 57% 0.0 mm 0 W/m2
21:38 8.4 °C -0.1 °C 1012.8 hPa WSW 21.9 km/h 36.7 km/h 55% 0.0 mm 0 W/m2
21:43 8.4 °C 0.1 °C 1012.8 hPa WSW 15.8 km/h 34.3 km/h 56% 0.0 mm 0 W/m2
21:48 8.3 °C 0.1 °C 1012.8 hPa WSW 7.2 km/h 33.1 km/h 56% 0.0 mm 0 W/m2
21:53 8.1 °C -0.2 °C 1013.1 hPa West 6.1 km/h 27.0 km/h 56% 0.0 mm 0 W/m2
21:58 7.4 °C -0.6 °C 1013.1 hPa WNW 6.1 km/h 15.8 km/h 57% 0.0 mm 0 W/m2
22:03 6.6 °C -0.2 °C 1013.1 hPa NW 8.7 km/h 15.8 km/h 62% 0.0 mm 0 W/m2
22:08 6.1 °C -0.4 °C 1013.1 hPa NW 9.7 km/h 13.4 km/h 63% 0.0 mm 0 W/m2
22:13 5.9 °C 0.1 °C 1013.1 hPa NW 6.1 km/h 13.4 km/h 66% 0.0 mm 0 W/m2
22:18 5.7 °C 0.1 °C 1013.1 hPa NNW 7.2 km/h 13.4 km/h 67% 0.0 mm 0 W/m2
22:23 5.6 °C 0.4 °C 1013.4 hPa NNW 9.7 km/h 12.2 km/h 69% 0.0 mm 0 W/m2
22:28 5.5 °C 0.4 °C 1013.4 hPa NNW 7.2 km/h 12.2 km/h 70% 0.0 mm 0 W/m2
22:33 5.3 °C 0.8 °C 1013.4 hPa NNW 6.1 km/h 11.1 km/h 73% 0.0 mm 0 W/m2
22:38 5.2 °C 0.8 °C 1013.4 hPa NNW 6.1 km/h 11.1 km/h 73% 0.0 mm 0 W/m2
22:43 5.0 °C 0.8 °C 1013.8 hPa NW 7.2 km/h 11.1 km/h 74% 0.0 mm 0 W/m2
22:48 4.8 °C 0.7 °C 1013.4 hPa NW 3.5 km/h 9.7 km/h 75% 0.0 mm 0 W/m2
22:53 4.5 °C 0.7 °C 1013.4 hPa NW 5.0 km/h 9.7 km/h 76% 0.0 mm 0 W/m2
22:58 4.4 °C 0.6 °C 1013.8 hPa NW 6.1 km/h 9.7 km/h 76% 0.0 mm 0 W/m2
23:03 4.4 °C 0.6 °C 1013.8 hPa NW 6.1 km/h 9.7 km/h 76% 0.0 mm 0 W/m2
23:08 4.5 °C 0.7 °C 1013.8 hPa NW 6.1 km/h 11.1 km/h 76% 0.0 mm 0 W/m2
23:13 4.8 °C 0.6 °C 1013.8 hPa NW 7.2 km/h 13.4 km/h 74% 0.0 mm 0 W/m2
23:18 4.8 °C 0.2 °C 1014.1 hPa NW 7.2 km/h 13.4 km/h 72% 0.0 mm 0 W/m2
23:23 4.7 °C -0.1 °C 1014.1 hPa NNW 3.5 km/h 11.1 km/h 71% 0.0 mm 0 W/m2
23:28 4.7 °C -0.3 °C 1014.1 hPa NW 5.0 km/h 12.2 km/h 70% 0.0 mm 0 W/m2
23:34 4.8 °C -0.6 °C 1014.1 hPa NW 5.0 km/h 12.2 km/h 68% 0.0 mm 0 W/m2
23:39 4.9 °C -0.7 °C 1014.1 hPa NW 3.5 km/h 12.2 km/h 67% 0.0 mm 0 W/m2
23:44 5.1 °C -1.2 °C 1014.1 hPa NW 5.0 km/h 11.1 km/h 64% 0.0 mm 0 W/m2
23:49 5.0 °C -1.2 °C 1014.1 hPa NW 3.5 km/h 12.2 km/h 64% 0.0 mm 0 W/m2
23:54 5.0 °C -1.2 °C 1014.1 hPa NW 2.6 km/h 12.2 km/h 64% 0.0 mm 0 W/m2
23:59 5.3 °C -1.4 °C 1014.4 hPa WNW 7.2 km/h 14.8 km/h 62% 0.0 mm 0 W/m2
Northern Hawkes Bay. New Zealand Historic Data
Compliments of Weather Underground - 2 mb